Wind_Speed
23 22 22 23 24 25 26 27 27 27 29 31 32 33 32 33 34 34 35 35 36 37 37 37 38 39 39 39 38 38 39 40 40 40 41 42 43 44 44 44 44 45 44 45
23 22 22 23 24 25 26 26 27 27 28 30 30 30 30 31 32 32 32 33 35 36 37 37 38 38 39 39 39 38 39 40 41 41 41 42 42 43 44 44 44 44 44 45
22 22 23 23 23 24 25 26 26 26 27 28 29 28 27 29 30 31 31 32 33 34 35 36 37 38 39 39 39 39 40 40 40 40 40 41 42 42 42 42 43 43 44 45
23 22 23 23 23 23 24 24 24 25 26 26 27 28 25 26 28 30 30 30 31 32 33 34 35 36 37 38 39 39 39 39 40 40 40 40 40 40 40 41 41 41 42 43
23 22 23 23 23 23 23 23 24 24 25 26 25 27 24 25 27 28 29 29 30 31 32 33 34 35 36 37 38 39 39 39 39 39 39 38 38 39 39 39 40 41 41 41
23 22 23 23 23 24 24 24 24 25 26 26 25 26 24 24 25 26 27 28 29 30 31 32 33 34 35 35 36 37 38 37 37 37 38 38 37 37 38 38 38 39 39 39
23 23 23 23 23 24 24 24 25 25 25 25 24 25 23 23 23 24 25 26 28 29 30 31 32 33 33 34 34 34 35 35 35 36 36 36 36 36 36 37 37 37 38 38
24 23 23 23 23 24 23 23 24 25 25 24 24 24 22 22 22 23 24 26 27 28 29 30 31 32 32 32 32 32 33 34 34 34 34 34 35 35 35 36 36 36 37 37
24 24 23 23 23 23 23 23 23 25 26 26 24 24 22 22 23 23 23 24 25 26 27 28 29 30 31 31 31 31 32 32 32 32 33 33 34 34 35 35 35 35 35 34
24 25 24 23 23 22 23 23 23 24 26 26 25 24 23 22 23 23 24 23 24 25 26 27 27 28 29 30 30 31 31 31 32 32 32 33 33 33 34 34 34 33 33 33
24 25 24 24 23 23 23 23 23 24 25 26 27 24 22 22 22 23 23 23 22 23 24 25 26 26 26 27 28 29 30 30 31 31 31 32 32 32 33 33 32 31 31 31
23 24 25 24 24 24 24 23 24 24 25 26 27 25 23 23 22 22 22 21 21 22 23 24 24 24 25 25 26 27 28 29 30 30 30 30 30 31 31 30 30 30 31 31
24 24 24 24 24 24 24 24 24 25 26 26 26 25 23 23 22 22 22 21 21 22 22 22 22 23 23 24 25 26 27 28 29 29 29 29 30 30 29 29 30 30 30 31
24 24 24 25 24 24 24 24 24 25 25 26 25 24 22 22 22 23 22 22 21 21 21 21 22 22 23 23 24 26 26 27 28 28 28 28 28 29 29 28 29 30 30 30
24 24 24 24 24 24 24 24 24 24 25 25 23 23 22 22 22 22 22 22 21 21 21 21 22 22 23 24 25 25 25 26 26 26 27 27 27 28 28 28 28 29 29 30
24 24 23 23 23 23 24 23 24 24 24 24 24 23 22 22 22 22 22 22 22 22 22 22 22 22 23 24 25 24 24 25 25 26 27 28 27 27 28 28 28 28 29 29
23 24 24 23 22 23 22 21 22 23 24 24 24 23 23 23 23 22 23 23 23 23 23 23 23 22 23 23 24 24 24 24 25 27 27 27 27 28 28 28 29 29 28 28
24 23 24 23 22 23 21 21 22 23 23 23 24 23 22 22 23 23 23 24 24 24 24 24 23 23 24 23 23 23 23 24 24 25 26 27 26 26 27 27 28 28 28 28
23 23 23 23 23 24 22 22 23 23 22 22 22 23 23 23 23 24 24 24 24 25 24 23 22 23 23 23 22 22 23 23 24 24 24 25 25 26 26 27 27 28 28 28
24 23 24 24 25 25 24 23 23 23 22 21 21 22 23 24 25 25 24 24 24 25 25 24 23 23 22 22 22 22 22 23 23 23 23 24 25 26 26 27 27 27 27 28
24 24 25 26 26 26 24 23 23 23 22 22 22 22 23 24 25 25 25 25 25 25 24 23 24 23 23 22 22 22 22 22 22 22 23 25 25 25 26 27 27 27 27 28
25 25 25 26 27 25 23 24 24 24 24 24 24 24 25 25 25 25 25 26 26 24 24 23 23 23 23 23 23 23 23 22 22 22 23 25 25 25 25 26 26 27 27 28
25 25 26 26 25 24 24 25 25 25 25 26 26 26 27 26 26 26 26 26 25 24 24 24 24 23 24 24 24 24 24 24 23 23 25 25 25 25 25 25 26 26 26 26
26 26 26 26 25 24 25 25 26 26 27 26 26 27 28 27 27 26 26 26 25 25 24 23 24 24 24 25 25 25 25 23 23 24 24 24 25 25 25 25 25 24 24 25
26 26 27 26 24 24 24 25 26 26 26 26 27 28 27 27 27 27 27 26 25 24 24 23 23 24 24 25 25 25 24 23 23 23 23 23 23 24 24 24 24 24 24 24
25 26 26 25 24 24 24 25 25 25 26 26 26 27 27 26 26 26 25 24 23 23 23 23 23 23 23 23 23 23 22 22 22 22 22 23 23 23 23 22 22 22 22 21
Wind_Direction
270 271 271 273 274 277 278 279 281 281 279 276 273 270 268 265 263 260 258 257 257 257 258 259 259 259 259 259 261 262 262 261 262 263 263 263 264 264 265 267 268 268 268 267
270 270 272 273 274 278 279 281 283 283 281 279 276 272 269 266 264 263 260 258 258 257 258 259 260 259 259 260 261 262 263 263 263 263 264 264 265 266 267 268 268 268 268 267
270 271 271 273 274 278 281 283 286 285 283 283 280 274 270 266 265 263 262 260 259 259 260 260 260 260 260 261 262 262 263 263 264 265 265 266 266 268 269 268 268 268 267 266
270 270 271 274 275 278 281 283 286 288 287 286 284 281 271 269 267 266 265 263 262 262 260 261 261 262 261 261 261 262 262 263 265 266 266 267 267 268 268 268 269 268 267 267
271 271 272 273 275 277 280 282 286 288 288 287 286 284 278 275 273 271 269 266 265 264 263 262 262 263 262 262 261 261 263 263 264 266 265 265 266 267 267 268 268 268 268 269
272 272 273 273 274 276 279 281 285 288 288 287 288 287 283 280 279 274 270 268 268 267 265 264 264 265 265 263 262 262 263 263 264 265 264 264 265 267 268 269 268 268 269 269
272 272 273 272 273 275 278 280 284 288 287 289 291 289 288 286 283 278 275 272 270 269 268 266 264 265 265 264 263 263 264 263 263 264 265 265 265 267 268 268 268 268 268 269
272 272 271 272 272 275 277 279 283 287 290 291 291 291 292 290 287 283 279 276 274 272 270 268 267 266 265 265 264 263 264 264 264 264 266 267 266 267 268 269 269 268 269 269
273 273 272 271 272 274 275 278 282 286 289 290 291 294 294 292 290 288 285 280 277 274 273 271 270 268 266 265 263 263 264 264 264 265 265 267 268 268 268 268 268 268 268 268
274 273 271 271 272 273 275 278 282 286 290 291 292 295 298 297 293 291 290 284 279 275 274 274 272 270 269 266 263 263 264 264 265 266 267 267 267 268 268 268 267 267 267 268
275 273 271 270 271 273 274 276 280 285 288 291 293 295 299 299 297 294 292 286 280 276 275 276 274 272 270 268 265 263 264 265 267 268 268 268 268 268 269 268 267 267 268 269
275 274 271 271 272 273 274 276 278 283 286 288 291 294 298 297 296 294 293 290 283 279 279 279 277 274 273 271 267 266 266 267 268 269 269 269 269 269 269 268 267 267 269 269
274 273 274 273 272 273 273 275 277 280 281 284 287 293 297 296 295 294 293 291 286 282 281 280 278 276 275 274 271 269 269 269 270 269 269 269 268 269 270 269 267 268 270 271
271 270 273 276 275 273 273 274 276 277 279 283 287 291 294 295 294 292 291 290 289 286 285 283 281 281 278 275 272 272 271 270 269 268 269 270 269 268 269 269 269 270 271 273
270 271 272 274 274 272 272 275 275 276 279 283 288 291 294 293 292 290 291 290 290 288 285 286 285 283 280 276 273 273 272 270 269 269 270 270 269 268 267 267 269 270 271 273
268 270 270 271 273 273 271 273 276 277 280 284 287 290 292 289 289 290 290 289 290 291 288 288 288 284 281 278 274 274 272 271 271 272 273 271 270 268 267 268 269 269 271 272
267 269 269 270 270 271 271 274 277 279 280 284 289 291 288 287 289 291 290 290 292 293 292 291 290 286 282 279 276 273 272 272 272 273 273 271 270 268 268 270 270 271 271 272
266 268 269 267 266 268 274 276 280 282 283 284 285 286 288 287 289 291 290 290 291 293 294 293 290 287 284 282 278 276 275 273 274 274 273 272 271 270 270 271 271 271 272 272
265 266 266 265 266 270 273 279 283 284 282 283 285 285 287 289 288 289 291 291 289 291 294 293 290 290 287 283 279 279 278 276 275 275 274 274 273 273 274 275 273 272 272 273
263 263 265 266 268 271 274 280 283 283 282 283 284 285 286 288 288 291 291 290 289 290 291 290 288 288 287 284 281 282 280 279 277 275 275 276 276 276 275 275 274 273 272 273
262 262 265 267 269 271 275 279 282 283 283 283 284 285 288 291 291 290 288 289 290 290 290 288 286 286 285 284 282 284 283 281 279 276 275 276 277 278 277 276 274 273 273 273
262 263 265 266 269 272 275 275 278 280 280 282 284 286 288 291 291 289 288 289 290 289 287 286 285 284 283 282 283 283 282 280 278 277 278 280 279 278 278 277 275 274 274 274
262 264 266 268 270 271 272 275 277 279 280 281 283 285 287 288 289 289 289 289 288 287 284 282 282 283 282 282 282 282 282 280 278 277 280 281 280 278 278 277 276 275 273 272
264 266 267 266 267 270 272 273 275 276 279 281 283 284 285 285 286 289 290 288 286 285 283 281 283 283 282 281 281 283 283 281 278 279 280 280 279 279 279 277 276 276 275 273
265 266 266 266 268 270 272 273 275 278 281 282 283 286 287 286 286 287 288 287 286 286 285 284 284 284 282 281 283 284 282 281 281 283 283 282 281 280 278 277 276 276 276 275
266 267 268 268 269 270 272 274 276 278 281 284 285 286 288 287 287 287 287 287 285 286 285 286 286 286 283 282 283 284 283 281 281 283 285 285 282 282 280 277 276 275 273 271
Height
5709 5709 5708 5708 5707 5706 5705 5704 5703 5701 5698 5696 5695 5695 5696 5694 5694 5694 5696 5697 5698 5699 5700 5700 5701 5702 5703 5704 5705 5706 5707 5707 5708 5708 5709 5709 5709 5709 5709 5708 5708 5707 5707 5707
5703 5703 5703 5701 5700 5699 5697 5696 5695 5693 5690 5688 5687 5686 5686 5685 5685 5686 5687 5688 5689 5689 5690 5691 5691 5692 5693 5694 5695 5696 5697 5697 5697 5698 5698 5698 5698 5698 5697 5697 5696 5696 5695 5695
5696 5697 5695 5694 5693 5692 5690 5689 5688 5686 5683 5680 5678 5679 5679 5678 5677 5677 5678 5679 5679 5680 5680 5681 5682 5682 5683 5685 5685 5686 5687 5687 5687 5687 5687 5687 5687 5687 5687 5686 5685 5684 5683 5683
5689 5689 5688 5687 5686 5685 5684 5683 5680 5678 5675 5673 5672 5670 5672 5670 5669 5669 5670 5670 5671 5671 5671 5671 5672 5673 5674 5674 5675 5676 5676 5676 5676 5676 5676 5677 5677 5676 5676 5675 5674 5673 5672 5671
5682 5682 5681 5681 5680 5678 5677 5676 5674 5671 5668 5667 5665 5663 5665 5663 5662 5662 5662 5662 5662 5661 5662 5662 5662 5662 5663 5663 5664 5664 5665 5665 5665 5666 5666 5666 5666 5666 5665 5664 5663 5662 5661 5660
5676 5675 5674 5674 5673 5672 5670 5669 5667 5664 5662 5660 5659 5656 5656 5656 5655 5654 5653 5653 5652 5652 5652 5652 5652 5652 5652 5652 5653 5653 5654 5654 5655 5655 5655 5656 5656 5655 5655 5654 5653 5652 5651 5650
5668 5668 5667 5667 5666 5665 5664 5662 5660 5657 5655 5654 5652 5649 5650 5649 5647 5645 5645 5644 5643 5643 5643 5642 5642 5642 5642 5642 5642 5643 5643 5644 5644 5645 5645 5645 5645 5645 5645 5644 5643 5642 5641 5640
5661 5661 5661 5660 5659 5658 5657 5656 5655 5652 5649 5648 5645 5643 5645 5642 5639 5637 5636 5635 5634 5634 5633 5633 5633 5632 5632 5632 5633 5633 5633 5634 5634 5635 5635 5635 5635 5635 5635 5634 5633 5632 5631 5630
5653 5653 5654 5653 5652 5651 5650 5649 5648 5645 5642 5640 5639 5638 5638 5635 5633 5630 5629 5627 5626 5625 5624 5623 5623 5623 5623 5623 5623 5624 5624 5624 5625 5625 5625 5625 5625 5625 5625 5624 5623 5623 5622 5621
5646 5645 5646 5645 5645 5644 5644 5642 5641 5638 5635 5632 5632 5631 5631 5628 5626 5623 5621 5619 5617 5616 5615 5614 5614 5613 5613 5613 5613 5614 5614 5615 5615 5615 5616 5616 5616 5615 5615 5614 5614 5613 5613 5612
5638 5638 5638 5638 5638 5637 5637 5636 5633 5631 5629 5626 5624 5627 5624 5621 5618 5616 5613 5611 5609 5608 5607 5606 5605 5604 5604 5603 5604 5604 5605 5606 5606 5606 5606 5606 5606 5606 5605 5605 5604 5604 5603 5603
5631 5630 5630 5631 5631 5629 5629 5628 5627 5625 5623 5619 5617 5620 5617 5614 5611 5609 5606 5604 5602 5600 5599 5598 5597 5596 5595 5595 5595 5595 5596 5596 5596 5596 5596 5596 5596 5596 5596 5595 5595 5595 5594 5594
5623 5623 5622 5623 5625 5623 5621 5621 5619 5617 5615 5612 5610 5613 5610 5607 5604 5602 5599 5597 5594 5593 5592 5591 5590 5589 5588 5587 5587 5587 5587 5587 5587 5587 5587 5587 5587 5587 5587 5586 5586 5586 5585 5585
5616 5616 5617 5616 5616 5614 5614 5614 5612 5610 5607 5606 5605 5604 5604 5600 5597 5594 5592 5590 5588 5587 5585 5584 5583 5582 5581 5580 5579 5579 5578 5578 5578 5578 5578 5578 5578 5578 5578 5578 5577 5577 5577 5576
5608 5608 5608 5608 5608 5606 5606 5606 5604 5602 5601 5599 5598 5597 5596 5593 5590 5588 5585 5583 5581 5580 5579 5577 5576 5574 5573 5572 5571 5570 5570 5570 5570 5570 5569 5569 5569 5569 5569 5569 5569 5569 5568 5567
5600 5600 5600 5600 5600 5598 5598 5598 5597 5596 5594 5592 5591 5590 5590 5586 5583 5581 5579 5577 5575 5573 5572 5570 5569 5567 5566 5564 5564 5563 5562 5562 5562 5561 5561 5560 5560 5560 5560 5560 5560 5560 5559 5559
5593 5593 5592 5592 5592 5591 5591 5592 5590 5589 5587 5586 5583 5584 5582 5579 5577 5575 5573 5571 5569 5567 5565 5563 5562 5560 5558 5557 5556 5555 5555 5554 5553 5553 5552 5551 5551 5551 5552 5552 5551 5551 5551 5550
5587 5586 5585 5585 5585 5583 5588 5585 5584 5582 5580 5579 5577 5576 5574 5573 5570 5568 5566 5564 5562 5561 5559 5556 5554 5552 5551 5549 5548 5547 5547 5546 5545 5544 5543 5543 5543 5543 5543 5542 5542 5542 5542 5541
5579 5579 5578 5577 5576 5576 5579 5579 5576 5574 5573 5572 5570 5568 5567 5565 5563 5562 5560 5557 5555 5554 5552 5549 5547 5545 5543 5542 5541 5540 5539 5538 5537 5536 5535 5535 5535 5535 5534 5533 5533 5533 5532 5532
5572 5571 5572 5570 5569 5569 5573 5572 5569 5568 5566 5566 5563 5562 5560 5558 5557 5556 5553 5550 5548 5546 5544 5542 5540 5538 5537 5535 5534 5533 5532 5531 5530 5529 5528 5528 5527 5527 5526 5525 5524 5523 5523 5522
5564 5564 5564 5563 5561 5562 5565 5564 5562 5562 5561 5558 5556 5554 5553 5551 5550 5548 5546 5544 5542 5540 5538 5535 5533 5532 5530 5529 5527 5526 5525 5524 5523 5522 5522 5521 5520 5519 5518 5516 5515 5514 5514 5513
5556 5556 5556 5555 5554 5558 5557 5556 5555 5554 5552 5551 5548 5547 5545 5544 5542 5540 5539 5537 5534 5532 5530 5528 5526 5525 5523 5522 5521 5520 5519 5518 5516 5515 5514 5513 5512 5510 5509 5508 5506 5505 5504 5504
5548 5549 5548 5549 5550 5550 5548 5548 5547 5546 5545 5543 5541 5540 5538 5537 5535 5533 5531 5529 5527 5525 5523 5521 5520 5518 5516 5515 5514 5513 5511 5510 5509 5508 5506 5505 5503 5502 5500 5499 5498 5497 5496 5495
5541 5541 5540 5540 5541 5542 5541 5540 5539 5538 5536 5535 5534 5532 5530 5529 5528 5526 5524 5522 5520 5518 5516 5515 5513 5511 5509 5508 5506 5505 5503 5502 5501 5500 5498 5497 5495 5494 5492 5491 5489 5489 5488 5487
5533 5532 5532 5532 5534 5533 5533 5532 5531 5530 5528 5527 5526 5525 5523 5521 5520 5518 5516 5514 5512 5510 5509 5507 5506 5504 5502 5501 5499 5497 5496 5494 5493 5492 5490 5489 5487 5486 5484 5483 5481 5481 5480 5479
5525 5525 5525 5526 5527 5525 5526 5525 5523 5522 5521 5520 5518 5517 5515 5514 5512 5510 5509 5507 5505 5503 5502 5500 5498 5497 5495 5493 5492 5490 5488 5487 5486 5484 5483 5481 5480 5478 5477 5475 5474 5473 5472 5472